Date String (YYYY-MM-DD hh:mm:ss) UTC,Instrument flags,Ambient pressure (hPa),Sample flow (lpm),Bypass flow (lpm),Sample temperature (°C),Ambient temperature (°C),ASC tube jacket temperature (°C),LED temperature (°C),Box temperature (°C),Sample RH (%),Span deviation,Mass concentration (μg/m³),Mass concentration (μg/m³),Mass concentration (μg/m³)
DateTimeUTC,F1_M11,P_M11,Q1_M11,Q2_M11,T1_M11,T2_M11,T3_M11,T4_M11,T5_M11,U1_M11,ZSPAN_M11,X0_M11,X2_M11,X1_M11
2022-09-16 00:00:00,,0825.7,4.99,0.00,29.7,27.5,00.0,38.4,31.4,23.3,0000.0,0007.67,0002.45,0001.76
2022-09-16 00:01:00,,0825.7,5.01,0.00,29.7,27.8,00.0,38.4,31.5,24.6,0000.0,0007.58,0002.38,0001.73
2022-09-16 00:02:00,,0825.7,4.99,0.00,29.7,28.0,00.0,38.4,31.5,25.4,0000.0,0007.46,0002.32,0001.69
2022-09-16 00:03:00,,0825.7,5.00,0.00,29.7,28.2,00.0,38.4,31.5,23.6,0000.0,0006.79,0002.22,0001.64
2022-09-16 00:04:00,,0825.7,4.99,0.00,29.7,28.3,00.0,38.4,31.6,21.4,0000.0,0005.86,0002.12,0001.59
2022-09-16 00:05:00,,0825.7,5.01,0.00,29.7,28.4,00.0,38.4,31.6,22.0,0000.0,0005.25,0002.05,0001.55
2022-09-16 00:06:00,,0825.7,5.00,0.00,29.8,28.6,00.0,38.4,31.7,20.8,0000.0,0005.07,0002.02,0001.51
2022-09-16 00:07:00,,0825.7,4.99,0.00,29.8,28.7,00.0,38.4,31.7,20.6,0000.0,0005.04,0001.98,0001.48
2022-09-16 00:08:00,,0825.7,5.00,0.00,29.8,28.8,00.0,38.5,31.8,21.7,0000.0,0004.20,0001.91,0001.45
2022-09-16 00:09:00,,0825.7,5.00,0.00,29.9,28.8,00.0,38.5,31.8,22.6,0000.0,0003.75,0001.82,0001.41
2022-09-16 00:10:00,,0825.7,4.99,0.00,29.9,28.8,00.0,38.5,31.8,20.5,0000.0,0003.51,0001.76,0001.38
2022-09-16 00:11:00,,0825.7,5.00,0.00,29.9,28.9,00.0,38.5,31.9,20.0,0000.0,0002.95,0001.70,0001.36
2022-09-16 00:12:00,,0825.7,5.01,0.00,30.0,29.0,00.0,38.6,32.0,19.9,0000.0,0002.80,0001.62,0001.32
2022-09-16 00:13:00,,0825.7,4.99,0.00,30.0,28.3,00.0,38.6,31.9,19.8,0000.0,0002.62,0001.54,0001.29
2022-09-16 00:14:00,,0825.7,5.00,0.00,30.0,27.1,00.0,38.6,31.9,19.9,0000.0,0002.55,0001.51,0001.27
2022-09-16 00:15:00,,0825.7,5.00,0.00,30.0,26.9,00.0,38.5,31.8,19.6,0000.0,0002.49,0001.48,0001.26
2022-09-16 00:16:00,,0825.7,5.00,0.00,29.9,27.1,00.0,38.5,31.5,19.6,0000.0,0002.41,0001.45,0001.24
2022-09-16 00:17:00,,0825.7,5.01,0.00,29.8,27.4,00.0,38.5,31.5,19.3,0000.0,0002.28,0001.40,0001.21
2022-09-16 00:18:00,,0825.7,4.99,0.00,29.8,27.8,00.0,38.5,31.6,19.0,0000.0,0002.04,0001.34,0001.19
2022-09-16 00:19:00,,0825.7,5.00,0.00,29.8,28.0,00.0,38.5,31.6,18.9,0000.0,0001.59,0001.29,0001.18
2022-09-16 00:20:00,,0825.7,5.00,0.00,29.8,28.2,00.0,38.5,31.6,19.1,0000.0,0001.62,0001.30,0001.16
2022-09-16 00:21:00,,0825.7,4.99,0.00,29.9,28.3,00.0,38.5,31.7,19.3,0000.0,0001.72,0001.34,0001.16
2022-09-16 00:22:00,,0825.7,5.01,0.00,29.9,28.5,00.0,38.5,31.8,19.4,0000.0,0001.74,0001.34,0001.15
2022-09-16 00:23:00,,0825.7,5.00,0.00,29.9,28.6,00.0,38.5,31.8,19.2,0000.0,0001.85,0001.39,0001.16
2022-09-16 00:24:00,,0825.7,4.99,0.00,29.9,28.7,00.0,38.6,31.9,19.1,0000.0,0001.89,0001.39,0001.15
2022-09-16 00:25:00,,0825.7,5.00,0.00,30.0,28.8,00.0,38.6,31.9,19.1,0000.0,0001.86,0001.38,0001.15
2022-09-16 00:26:00,,0825.7,5.01,0.00,30.0,28.8,00.0,38.6,31.9,19.3,0000.0,0001.89,0001.40,0001.16
2022-09-16 00:27:00,,0825.7,4.99,0.00,30.0,28.0,00.0,38.6,31.9,19.6,0000.0,0001.82,0001.37,0001.16
2022-09-16 00:28:00,,0825.7,4.98,0.00,30.0,26.7,00.0,38.6,31.8,21.9,0000.0,0001.85,0001.38,0001.16
2022-09-16 00:29:00,,0825.7,4.99,0.00,29.9,26.3,00.0,38.5,31.7,26.0,0000.0,0001.94,0001.41,0001.16
2022-09-16 00:30:00,,0825.7,5.01,0.00,29.8,26.5,00.0,38.5,31.5,23.3,0000.0,0001.93,0001.42,0001.17
2022-09-16 00:31:00,,0825.7,5.01,0.00,29.7,26.8,00.0,38.5,31.4,22.3,0000.0,0001.89,0001.43,0001.19
2022-09-16 00:32:00,,0825.7,5.00,0.00,29.7,27.1,00.0,38.4,31.4,22.2,0000.0,0001.83,0001.42,0001.22
2022-09-16 00:33:00,,0825.7,4.99,0.00,29.7,27.5,00.0,38.4,31.4,21.5,0000.0,0001.86,0001.43,0001.24
2022-09-16 00:34:00,,0825.7,5.00,0.00,29.7,27.8,00.0,38.4,31.5,22.0,0000.0,0001.88,0001.44,0001.25
2022-09-16 00:35:00,,0825.7,5.00,0.00,29.7,28.0,00.0,38.4,31.5,21.9,0000.0,0001.90,0001.46,0001.26
2022-09-16 00:36:00,,0825.7,4.99,0.00,29.7,28.1,00.0,38.4,31.5,21.6,0000.0,0001.91,0001.47,0001.28
2022-09-16 00:37:00,,0825.7,5.00,0.00,29.7,28.3,00.0,38.4,31.6,21.4,0000.0,0002.22,0001.51,0001.31
2022-09-16 00:38:00,,0825.7,5.00,0.00,29.8,28.4,00.0,38.4,31.7,21.3,0000.0,0003.20,0001.55,0001.33
2022-09-16 00:39:00,,0825.7,4.99,0.00,29.8,28.6,00.0,38.4,31.7,21.2,0000.0,0003.22,0001.57,0001.36
2022-09-16 00:40:00,,0825.7,5.01,0.00,29.8,28.7,00.0,38.4,31.7,21.0,0000.0,0003.21,0001.59,0001.39
2022-09-16 00:41:00,,0825.6,5.00,0.00,29.9,28.7,00.0,38.5,31.7,20.6,0000.0,0003.23,0001.61,0001.41
2022-09-16 00:42:00,,0825.6,5.00,0.00,29.9,28.8,00.0,38.5,31.8,20.5,0000.0,0003.25,0001.62,0001.43
2022-09-16 00:43:00,,0825.6,5.00,0.00,29.9,28.9,00.0,38.5,31.9,20.4,0000.0,0003.30,0001.64,0001.43
2022-09-16 00:44:00,,0825.6,5.00,0.00,30.0,28.9,00.0,38.5,31.9,20.3,0000.0,0003.38,0001.67,0001.45
2022-09-16 00:45:00,,0825.6,5.01,0.00,30.0,29.0,00.0,38.6,32.0,20.0,0000.0,0003.44,0001.67,0001.46
2022-09-16 00:46:00,,0825.6,4.99,0.00,30.0,28.3,00.0,38.6,31.9,19.7,0000.0,0003.54,0001.67,0001.46
2022-09-16 00:47:00,,0825.6,5.01,0.00,30.0,27.1,00.0,38.6,31.9,20.1,0000.0,0003.61,0001.70,0001.48
2022-09-16 00:48:00,,0825.6,4.99,0.00,30.0,26.9,00.0,38.5,31.8,20.4,0000.0,0003.67,0001.72,0001.48
2022-09-16 00:49:00,,0825.6,5.01,0.00,29.9,27.2,00.0,38.5,31.7,19.7,0000.0,0002.67,0001.72,0001.46
2022-09-16 00:50:00,,0825.7,5.00,0.00,29.9,27.5,00.0,38.5,31.6,19.2,0000.0,0002.46,0001.71,0001.45
2022-09-16 00:51:00,,0825.7,5.00,0.00,29.8,27.8,00.0,38.5,31.6,21.2,0000.0,0002.51,0001.70,0001.44
2022-09-16 00:52:00,,0825.7,4.99,0.00,29.8,28.0,00.0,38.5,31.7,23.6,0000.0,0003.15,0001.69,0001.43
2022-09-16 00:53:00,,0825.7,4.99,0.00,29.9,28.2,00.0,38.5,31.7,21.2,0000.0,0003.83,0001.68,0001.42
2022-09-16 00:54:00,,0825.7,5.01,0.00,29.9,28.4,00.0,38.5,31.7,20.5,0000.0,0004.06,0001.66,0001.40
2022-09-16 00:55:00,,0825.7,4.99,0.00,29.9,28.6,00.0,38.5,31.7,21.0,0000.0,0004.02,0001.64,0001.39
2022-09-16 00:56:00,,0825.7,5.01,0.00,29.9,28.6,00.0,38.6,31.8,21.3,0000.0,0004.46,0001.66,0001.39
2022-09-16 00:57:00,,0825.7,4.99,0.00,29.9,28.7,00.0,38.6,31.8,22.0,0000.0,0004.68,0001.66,0001.39
2022-09-16 00:58:00,,0825.7,5.00,0.00,30.0,28.8,00.0,38.6,31.9,21.3,0000.0,0004.66,0001.64,0001.38
2022-09-16 00:59:00,,0825.7,5.01,0.00,30.0,28.9,00.0,38.6,31.9,20.9,0000.0,0004.64,0001.62,0001.38
